SCP
0 0 0 0 0 0 0 0 0 0 0 0 0 0 0 0 0 0 0 0 1 1
0 0 0 0 0 0 0 0 0 0 0 0 0 0 0 0 0 1 1 1 1 0
0 0 0 0 0 0 0 0 0 0 0 0 0 0 0 1 0 0 0 0 0 0
0 0 0 0 0 0 0 0 0 0 0 0 0 0 1 1 0 0 0 0 0 0
0 0 0 0 0 0 0 0 0 0 0 0 0 0 0 0 0 0 0 0 0 0
0 0 0 0 0 0 0 0 0 0 0 0 0 0 0 0 0 0 0 0 0 0
0 0 0 0 0 0 0 0 0 0 0 0 0 0 0 0 0 0 0 0 0 0
0 0 0 0 0 0 0 0 0 0 0 0 0 0 0 0 0 0 0 0 0 0
0 0 0 0 0 0 0 0 0 0 0 0 0 0 0 0 0 0 0 0 0 0
0 0 0 0 0 0 0 0 0 0 0 0 0 0 0 0 0 0 0 0 0 0
0 0 0 0 0 0 0 0 0 0 0 0 0 0 0 0 0 0 0 0 0 0
0 0 0 0 0 0 0 0 0 0 0 0 0 0 0 0 0 0 0 0 0 0
0 0 0 0 0 0 0 0 0 0 0 0 0 0 0 0 0 0 0 0 0 0
0 0 0 0 0 0 0 0 0 0 0 0 0 0 0 0 0 0 0 0 0 0
Wind_Speed_500mb
7 5 7 11 11 8 10 11 14 11 14 18 21 24 28 30 33 36 39 45 49 52
12 9 12 15 11 11 18 13 14 17 20 23 27 30 35 36 42 43 48 49 50 54
16 14 14 16 18 19 19 18 19 21 24 28 31 35 42 43 42 44 49 51 52 51
17 15 17 19 21 22 22 22 22 25 28 31 35 38 37 42 42 40 41 40 37 40
16 16 19 21 21 22 22 22 24 27 30 33 33 34 38 31 33 33 34 35 36 40
13 13 15 15 15 15 17 20 24 27 26 27 24 19 22 24 27 30 31 34 37 39
8 8 9 10 12 14 17 18 19 19 18 17 19 20 26 27 26 29 30 31 33 34
9 10 13 14 13 13 12 12 14 13 8 8 15 26 32 35 31 27 28 30 30 31
11 14 13 12 13 11 10 9 6 4 5 5 14 29 35 37 33 25 26 30 30 29
12 11 12 13 11 7 5 3 4 3 5 14 29 32 32 33 27 22 27 28 27 32
11 11 11 9 6 2 3 2 1 4 8 9 29 33 36 36 26 22 27 25 28 27
11 10 9 7 4 3 3 2 3 8 10 16 22 34 35 44 32 27 28 25 27 34
7 6 6 4 6 5 4 4 5 14 17 19 19 39 45 51 40 30 30 26 28 39
5 5 4 4 4 5 5 7 11 13 18 18 24 32 49 53 45 29 29 28 30 33
Wind_Direction_500mb
255 266 288 294 314 320 298 298 294 302 298 295 295 293 292 297 293 290 290 285 288 291
246 245 236 255 294 315 304 302 303 297 297 299 298 296 294 295 292 296 296 298 296 294
236 252 260 272 280 288 294 295 296 299 302 301 299 299 297 298 299 301 302 304 305 308
239 260 271 280 286 283 285 292 297 301 302 303 301 300 299 304 308 319 328 329 327 323
249 267 278 280 283 283 286 292 297 302 303 305 309 305 315 330 323 324 326 326 326 324
253 275 282 283 285 283 289 297 300 304 307 311 328 314 324 336 331 329 328 327 324 324
266 275 291 296 295 296 296 306 313 318 331 317 297 324 336 340 339 329 328 327 330 329
265 285 294 291 289 297 301 323 314 318 321 357 342 341 339 339 340 330 332 331 332 330
279 288 289 295 301 319 316 329 357 346 352 347 331 340 339 338 343 333 326 329 332 333
289 286 293 299 295 301 327 8 16 5 337 327 326 337 342 343 345 331 322 326 327 327
288 284 285 278 289 319 304 329 4 337 331 337 305 328 338 345 347 332 324 324 320 320
287 275 264 260 262 260 281 295 302 307 316 313 306 328 337 347 353 326 329 327 318 321
280 263 240 233 267 251 213 257 285 302 302 308 321 321 333 342 343 330 329 334 324 325
257 237 248 265 238 233 269 282 300 304 311 307 314 311 323 329 335 331 329 325 320 318
Wind_Speed_850mb
7 5 7 11 11 8 10 11 14 11 14 18 21 24 28 30 33 36 39 45 49 52
12 9 12 15 11 11 18 13 14 17 20 23 27 30 35 36 42 43 48 49 50 54
16 14 14 16 18 19 19 18 19 21 24 28 31 35 42 43 42 44 49 51 52 51
17 15 17 19 21 22 22 22 22 25 28 31 35 38 37 42 42 40 41 40 37 40
16 16 19 21 21 22 22 22 24 27 30 33 33 34 38 31 33 33 34 35 36 40
13 13 15 15 15 15 17 20 24 27 26 27 24 19 22 24 27 30 31 34 37 39
8 8 9 10 12 14 17 18 19 19 18 17 19 20 26 27 26 29 30 31 33 34
9 10 13 14 13 13 12 12 14 13 8 8 15 26 32 35 31 27 28 30 30 31
11 14 13 12 13 11 10 9 6 4 5 5 14 29 35 37 33 25 26 30 30 29
12 11 12 13 11 7 5 3 4 3 5 14 29 32 32 33 27 22 27 28 27 32
11 11 11 9 6 2 3 2 1 4 8 9 29 33 36 36 26 22 27 25 28 27
11 10 9 7 4 3 3 2 3 8 10 16 22 34 35 44 32 27 28 25 27 34
7 6 6 4 6 5 4 4 5 14 17 19 19 39 45 51 40 30 30 26 28 39
5 5 4 4 4 5 5 7 11 13 18 18 24 32 49 53 45 29 29 28 30 33
Wind_Direction_850mb
255 266 288 294 314 320 298 298 294 302 298 295 295 293 292 297 293 290 290 285 288 291
246 245 236 255 294 315 304 302 303 297 297 299 298 296 294 295 292 296 296 298 296 294
236 252 260 272 280 288 294 295 296 299 302 301 299 299 297 298 299 301 302 304 305 308
239 260 271 280 286 283 285 292 297 301 302 303 301 300 299 304 308 319 328 329 327 323
249 267 278 280 283 283 286 292 297 302 303 305 309 305 315 330 323 324 326 326 326 324
253 275 282 283 285 283 289 297 300 304 307 311 328 314 324 336 331 329 328 327 324 324
266 275 291 296 295 296 296 306 313 318 331 317 297 324 336 340 339 329 328 327 330 329
265 285 294 291 289 297 301 323 314 318 321 357 342 341 339 339 340 330 332 331 332 330
279 288 289 295 301 319 316 329 357 346 352 347 331 340 339 338 343 333 326 329 332 333
289 286 293 299 295 301 327 8 16 5 337 327 326 337 342 343 345 331 322 326 327 327
288 284 285 278 289 319 304 329 4 337 331 337 305 328 338 345 347 332 324 324 320 320
287 275 264 260 262 260 281 295 302 307 316 313 306 328 337 347 353 326 329 327 318 321
280 263 240 233 267 251 213 257 285 302 302 308 321 321 333 342 343 330 329 334 324 325
257 237 248 265 238 233 269 282 300 304 311 307 314 311 323 329 335 331 329 325 320 318